OK,30,75,945,30,2014-10-01T01:40:00,0,28072715,195684
OK,30,75,945,30,2014-10-01T01:45:00,0,28073162,195684
OK,39,57,945,39,2014-10-01T01:50:00,1,28073610,195684
OK,39,57,945,39,2014-10-01T01:55:00,0,28073928,195684
OK,53,42,945,53,2014-10-01T02:00:00,1,28074377,195684
OK,53,42,945,53,2014-10-01T02:05:00,1,28074818,195684
OK,53,42,945,53,2014-10-01T02:10:00,0,28075266,195684
OK,53,42,945,53,2014-10-01T02:15:00,0,28075715,195684
OK,53,42,945,53,2014-10-01T02:20:00,0,28076098,195684
OK,53,42,945,53,2014-10-01T02:25:00,0,28076547,195684
OK,53,42,945,53,2014-10-01T02:30:00,0,28076996,195684
OK,53,42,945,53,2014-10-01T02:35:00,0,28077445,195684
OK,42,53,945,42,2014-10-01T02:40:00,1,28077848,195684
OK,42,53,945,42,2014-10-01T02:45:00,3,28078297,195684
OK,55,41,945,55,2014-10-01T02:50:00,1,28078742,195684
OK,35,64,945,35,2014-10-01T02:55:00,4,28079191,195684
OK,33,68,945,33,2014-10-01T03:00:00,2,28079633,195684
OK,33,68,945,33,2014-10-01T03:05:00,0,28080082,195684
OK,33,68,945,33,2014-10-01T03:10:00,0,28080416,195684
OK,18,125,945,18,2014-10-01T03:15:00,1,28080865,195684
OK,25,90,945,25,2014-10-01T03:20:00,2,28081314,195684
OK,25,90,945,25,2014-10-01T03:25:00,0,28081761,195684
OK,25,90,945,25,2014-10-01T03:30:00,0,28082210,195684
OK,48,47,945,48,2014-10-01T03:35:00,2,28082643,195684
OK,40,56,945,40,2014-10-01T03:40:00,3,28083075,195684
OK,43,52,945,43,2014-10-01T03:45:00,3,28083524,195684
OK,52,43,945,52,2014-10-01T03:50:00,2,28083973,195684
OK,46,49,945,46,2014-10-01T03:55:00,2,28084414,195684
OK,31,72,945,31,2014-10-01T04:00:00,1,28084839,195684
OK,38,59,945,38,2014-10-01T04:05:00,2,28085288,195684
OK,57,39,945,57,2014-10-01T04:10:00,3,28085733,195684
OK,30,75,945,30,2014-10-01T04:15:00,5,28086182,195684
OK,27,83,945,27,2014-10-01T04:20:00,3,28086624,195684
OK,45,50,945,45,2014-10-01T04:25:00,2,28087073,195684
OK,42,53,945,42,2014-10-01T04:30:00,6,28087518,195684
OK,48,47,945,48,2014-10-01T04:35:00,8,28087967,195684
OK,41,55,945,41,2014-10-01T04:40:00,6,28088391,195684
OK,31,72,945,31,2014-10-01T04:45:00,6,28088840,195684
OK,36,62,945,36,2014-10-01T04:50:00,3,28089270,195684
OK,37,61,945,37,2014-10-01T04:55:00,0,28089719,195684
OK,47,48,945,47,2014-10-01T05:00:00,4,28090168,195684
OK,52,43,945,52,2014-10-01T05:05:00,6,28090514,195684
OK,54,41,945,54,2014-10-01T05:10:00,5,28090961,195684
OK,48,47,945,48,2014-10-01T05:15:00,11,28091410,195684
OK,41,55,945,41,2014-10-01T05:20:00,10,28091827,195684
OK,74,30,945,74,2014-10-01T05:25:00,8,28092276,195684
OK,74,30,945,74,2014-10-01T05:30:00,6,28092720,195684
OK,41,55,945,41,2014-10-01T05:35:00,3,28093161,195684
OK,53,42,945,53,2014-10-01T05:40:00,5,28093592,195684
OK,71,31,945,71,2014-10-01T05:45:00,11,28094041,195684
OK,73,30,945,73,2014-10-01T05:50:00,11,28094452,195684
OK,78,28,945,78,2014-10-01T05:55:00,11,28094897,195684
OK,103,21,945,103,2014-10-01T06:00:00,9,28095344,195684
OK,69,32,945,69,2014-10-01T06:05:00,11,28095793,195684
OK,68,33,945,68,2014-10-01T06:10:00,6,28096206,195684
OK,68,33,945,68,2014-10-01T06:15:00,8,28096655,195684
OK,68,33,945,68,2014-10-01T06:20:00,9,28097089,195684
OK,60,37,945,60,2014-10-01T06:25:00,5,28097538,195684
OK,60,37,945,60,2014-10-01T06:30:00,7,28097987,195684
OK,45,50,945,45,2014-10-01T06:35:00,5,28098424,195684
OK,29,77,945,29,2014-10-01T06:40:00,3,28098868,195684
OK,55,41,945,55,2014-10-01T06:45:00,2,28099316,195684
OK,105,21,945,105,2014-10-01T06:50:00,3,28099659,195684
OK,105,21,945,105,2014-10-01T06:55:00,7,28100108,195684
OK,103,21,945,103,2014-10-01T07:00:00,5,28100415,195684
OK,103,21,945,103,2014-10-01T07:05:00,6,28100864,195684
OK,54,41,945,54,2014-10-01T07:10:00,2,28101235,195684
OK,51,44,945,51,2014-10-01T07:15:00,6,28101684,195684
OK,43,52,945,43,2014-10-01T07:20:00,8,28102120,195684
OK,40,56,945,40,2014-10-01T07:25:00,6,28102569,195684
OK,65,34,945,65,2014-10-01T07:30:00,4,28102997,195684
OK,64,35,945,64,2014-10-01T07:35:00,7,28103443,195684
OK,54,41,945,54,2014-10-01T07:40:00,12,28103888,195684
OK,50,45,945,50,2014-10-01T07:45:00,11,28104333,195684
OK,52,43,945,52,2014-10-01T07:50:00,5,28104774,195684
OK,63,35,945,63,2014-10-01T07:55:00,7,28105219,195684
OK,51,44,945,51,2014-10-01T08:00:00,10,28105659,195684
OK,51,44,945,51,2014-10-01T08:05:00,9,28106108,195684
OK,55,41,945,55,2014-10-01T08:10:00,4,28106545,195684
OK,62,36,945,62,2014-10-01T08:15:00,6,28106951,195684
OK,48,47,945,48,2014-10-01T08:20:00,7,28107383,195684
OK,48,47,945,48,2014-10-01T08:25:00,8,28107832,195684
OK,50,45,945,50,2014-10-01T08:30:00,6,28108271,195684
OK,50,45,945,50,2014-10-01T08:35:00,6,28108720,195684
OK,32,70,945,32,2014-10-01T08:40:00,4,28109148,195684
OK,53,42,945,53,2014-10-01T08:45:00,5,28109597,195684
OK,53,42,945,53,2014-10-01T08:50:00,6,28109940,195684
OK,80,28,945,80,2014-10-01T08:55:00,5,28110389,195684
OK,66,34,945,66,2014-10-01T09:00:00,6,28110812,195684
OK,52,43,945,52,2014-10-01T09:05:00,5,28111261,195684
OK,54,41,945,54,2014-10-01T09:10:00,6,28111690,195684
OK,48,47,945,48,2014-10-01T09:15:00,11,28112139,195684
OK,48,47,945,48,2014-10-01T09:20:00,13,28112480,195684
OK,50,45,945,50,2014-10-01T09:25:00,14,28112929,195684
OK,52,43,945,52,2014-10-01T09:30:00,10,28113353,195684
OK,58,38,945,58,2014-10-01T09:35:00,9,28113802,195684
OK,61,37,945,61,2014-10-01T09:40:00,15,28114234,195684
OK,76,29,945,76,2014-10-01T09:45:00,9,28114683,195684
OK,48,47,945,48,2014-10-01T09:50:00,9,28115037,195684
OK,62,36,945,62,2014-10-01T09:55:00,6,28115486,195684
OK,67,33,945,67,2014-10-01T10:00:00,11,28115898,195684
OK,68,33,945,68,2014-10-01T10:05:00,9,28116347,195684
OK,52,43,945,52,2014-10-01T10:10:00,7,28116755,195684
OK,60,37,945,60,2014-10-01T10:15:00,11,28117204,195684
OK,67,33,945,67,2014-10-01T10:20:00,7,28117629,195684
OK,65,34,945,65,2014-10-01T10:25:00,7,28118078,195684
OK,49,46,945,49,2014-10-01T10:30:00,7,28118523,195684
OK,44,51,945,44,2014-10-01T10:35:00,6,28118970,195684
OK,47,48,945,47,2014-10-01T10:40:00,7,28119414,195684
OK,62,36,945,62,2014-10-01T10:45:00,10,28119862,195684
OK,65,34,945,65,2014-10-01T10:50:00,7,28120310,195684
OK,76,29,945,76,2014-10-01T10:55:00,2,28120759,195684
OK,56,40,945,56,2014-10-01T11:00:00,8,28121142,195684
OK,48,47,945,48,2014-10-01T11:05:00,10,28121591,195684
OK,56,40,945,56,2014-10-01T11:10:00,10,28122029,195684
OK,60,37,945,60,2014-10-01T11:15:00,8,28122478,195684
OK,48,47,945,48,2014-10-01T11:20:00,7,28122919,195684
OK,56,40,945,56,2014-10-01T11:25:00,8,28123368,195684
OK,67,33,945,67,2014-10-01T11:30:00,9,28123800,195684
OK,70,32,945,70,2014-10-01T11:35:00,7,28124249,195684
OK,71,31,945,71,2014-10-01T11:40:00,6,28124651,195684
OK,69,32,945,69,2014-10-01T11:45:00,8,28125100,195684
OK,44,51,945,44,2014-10-01T11:50:00,10,28125529,195684
OK,66,34,945,66,2014-10-01T11:55:00,11,28125978,195684
OK,71,31,945,71,2014-10-01T12:00:00,8,28126330,195684
OK,57,39,945,57,2014-10-01T12:05:00,5,28126779,195684
OK,59,38,945,59,2014-10-01T12:10:00,9,28127228,195684
OK,59,38,945,59,2014-10-01T12:15:00,7,28127677,195684
OK,48,47,945,48,2014-10-01T12:20:00,5,28128105,195684
OK,48,47,945,48,2014-10-01T12:25:00,5,28128554,195684
OK,62,36,945,62,2014-10-01T12:30:00,4,28128989,195684
OK,50,45,945,50,2014-10-01T12:35:00,4,28129438,195684
OK,53,42,945,53,2014-10-01T12:40:00,4,28129872,195684
OK,45,50,945,45,2014-10-01T12:45:00,5,28130321,195684
OK,64,35,945,64,2014-10-01T12:50:00,6,28130749,195684
OK,61,37,945,61,2014-10-01T12:55:00,10,28131198,195684
OK,52,43,945,52,2014-10-01T13:00:00,10,28131635,195684
OK,61,37,945,61,2014-10-01T13:05:00,9,28132084,195684
OK,61,37,945,61,2014-10-01T13:10:00,8,28132522,195684
OK,53,42,945,53,2014-10-01T13:15:00,5,28132969,195684
OK,74,30,945,74,2014-10-01T13:20:00,3,28133407,195684
OK,74,30,945,74,2014-10-01T13:25:00,9,28133856,195684
OK,74,30,945,74,2014-10-01T13:30:00,11,28134295,195684
OK,74,30,945,74,2014-10-01T13:35:00,9,28134744,195684
OK,57,39,945,57,2014-10-01T13:40:00,7,28135163,195684
OK,47,48,945,47,2014-10-01T13:45:00,4,28135612,195684
OK,47,48,945,47,2014-10-01T13:50:00,4,28136049,195684
OK,112,20,945,112,2014-10-01T13:55:00,4,28136498,195684
OK,90,25,945,90,2014-10-01T14:00:00,5,28136938,195684
OK,49,46,945,49,2014-10-01T14:05:00,3,28137387,195684
OK,63,35,945,63,2014-10-01T14:10:00,6,28137821,195684
OK,76,29,945,76,2014-10-01T14:15:00,5,28138270,195684
OK,73,30,945,73,2014-10-01T14:20:00,5,28138698,195684
OK,79,28,945,79,2014-10-01T14:25:00,4,28139147,195684
OK,92,24,945,92,2014-10-01T14:30:00,7,28139558,195684
OK,73,30,945,73,2014-10-01T14:35:00,8,28140007,195684
OK,67,33,945,67,2014-10-01T14:40:00,6,28140449,195684
OK,74,30,945,74,2014-10-01T14:45:00,9,28140898,195684
OK,84,26,945,84,2014-10-01T14:50:00,12,28141324,195684
OK,115,19,945,115,2014-10-01T14:55:00,7,28141773,195684
OK,136,16,945,136,2014-10-01T15:00:00,3,28142201,195684
OK,125,18,945,125,2014-10-01T15:05:00,2,28142650,195684
OK,135,16,945,135,2014-10-01T15:10:00,4,28143077,195684
OK,106,21,945,106,2014-10-01T15:15:00,4,28143526,195684
OK,68,33,945,68,2014-10-01T15:20:00,6,28143974,195684
OK,56,40,945,56,2014-10-01T15:25:00,7,28144423,195684
OK,46,49,945,46,2014-10-01T15:30:00,4,28144844,195684
OK,41,55,945,41,2014-10-01T15:35:00,5,28145258,195684
OK,42,53,945,42,2014-10-01T15:40:00,6,28145707,195684
OK,54,41,945,54,2014-10-01T15:45:00,5,28146156,195684
OK,58,38,945,58,2014-10-01T15:50:00,4,28146605,195684
OK,57,39,945,57,2014-10-01T15:55:00,5,28147013,195684
OK,55,41,945,55,2014-10-01T16:00:00,5,28147457,195684
OK,69,32,945,69,2014-10-01T16:05:00,4,28147906,195684
OK,68,33,945,68,2014-10-01T16:10:00,3,28148307,195684
OK,57,39,945,57,2014-10-01T16:15:00,0,28148756,195684
OK,45,50,945,45,2014-10-01T16:20:00,2,28149195,195684
OK,40,56,945,40,2014-10-01T16:25:00,3,28149644,195684
OK,44,51,945,44,2014-10-01T16:30:00,5,28150070,195684
OK,45,50,945,45,2014-10-01T16:35:00,5,28150519,195684
OK,53,42,945,53,2014-10-01T16:40:00,2,28150937,195684
OK,61,37,945,61,2014-10-01T16:45:00,1,28151386,195684
OK,41,55,945,41,2014-10-01T16:50:00,3,28151835,195684
OK,47,48,945,47,2014-10-01T17:00:00,1,28152284,195684
OK,53,42,945,53,2014-10-01T17:05:00,3,28152730,195684
OK,53,42,945,53,2014-10-01T17:10:00,3,28153177,195684
OK,43,52,945,43,2014-10-01T17:15:00,2,28153626,195684
OK,20,113,945,20,2014-10-01T17:20:00,1,28154036,195684
OK,39,57,945,39,2014-10-01T17:25:00,2,28154485,195684
OK,46,49,945,46,2014-10-01T17:30:00,4,28154927,195684
OK,44,51,945,44,2014-10-01T17:35:00,1,28155375,195684
OK,51,44,945,51,2014-10-01T17:40:00,3,28155793,195684
OK,51,44,945,51,2014-10-01T17:45:00,3,28156242,195684
OK,49,46,945,49,2014-10-01T17:50:00,5,28156691,195684
OK,51,44,945,51,2014-10-01T17:55:00,8,28157129,195684
OK,50,45,945,50,2014-10-01T18:00:00,4,28157559,195684
OK,55,41,945,55,2014-10-01T18:05:00,1,28158007,195684
OK,55,41,945,55,2014-10-01T18:10:00,0,28158451,195684
OK,57,39,945,57,2014-10-01T18:15:00,1,28158897,195684
OK,59,38,945,59,2014-10-01T18:20:00,2,28159343,195684
OK,61,37,945,61,2014-10-01T18:25:00,1,28159678,195684
OK,43,52,945,43,2014-10-01T18:30:00,1,28160127,195684
OK,43,52,945,43,2014-10-01T18:35:00,0,28160576,195684
OK,76,29,945,76,2014-10-01T18:40:00,1,28161014,195684
OK,76,29,945,76,2014-10-01T18:45:00,0,28161463,195684
OK,76,29,945,76,2014-10-01T18:50:00,0,28161880,195684
OK,51,44,945,51,2014-10-01T18:55:00,1,28162329,195684
OK,57,39,945,57,2014-10-01T19:00:00,2,28162723,195684
OK,63,35,945,63,2014-10-01T19:05:00,0,28163162,195684
OK,63,35,945,63,2014-10-01T19:10:00,0,28163610,195684
OK,43,52,945,43,2014-10-01T19:15:00,2,28164059,195684
OK,47,48,945,47,2014-10-01T19:20:00,2,28164490,195684
OK,44,51,945,44,2014-10-01T19:25:00,0,28164939,195684
OK,44,51,945,44,2014-10-01T19:30:00,0,28165364,195684
OK,56,40,945,56,2014-10-01T19:35:00,1,28165812,195684
OK,56,40,945,56,2014-10-01T19:40:00,1,28166253,195684
OK,56,40,945,56,2014-10-01T19:45:00,0,28166615,195684
OK,35,64,945,35,2014-10-01T19:50:00,1,28167064,195684
OK,35,64,945,35,2014-10-01T19:55:00,1,28167493,195684
OK,40,56,945,40,2014-10-01T20:00:00,1,28167926,195684
OK,42,53,945,42,2014-10-01T20:05:00,1,28168375,195684
OK,39,57,945,39,2014-10-01T20:10:00,2,28168820,195684
OK,40,56,945,40,2014-10-01T20:15:00,1,28169269,195684
OK,40,56,945,40,2014-10-01T20:20:00,0,28169717,195684
OK,22,102,945,22,2014-10-01T20:25:00,1,28170143,195684
OK,22,102,945,22,2014-10-01T20:30:00,0,28170588,195684
OK,22,102,945,22,2014-10-01T20:35:00,0,28171036,195684
OK,22,102,945,22,2014-10-01T20:40:00,0,28171473,195684
OK,22,102,945,22,2014-10-01T20:45:00,0,28171919,195684
OK,22,102,945,22,2014-10-01T20:50:00,0,28172367,195684
OK,22,102,945,22,2014-10-01T20:55:00,0,28172813,195684
OK,22,102,945,22,2014-10-01T21:00:00,0,28173259,195684
OK,29,77,945,29,2014-10-01T21:05:00,2,28173708,195684
OK,25,90,945,25,2014-10-01T21:10:00,3,28174149,195684
OK,43,52,945,43,2014-10-01T21:15:00,2,28174598,195684
OK,44,51,945,44,2014-10-01T21:20:00,0,28175024,195684
OK,44,51,945,44,2014-10-01T21:25:00,0,28175420,195684
OK,44,51,945,44,2014-10-01T21:30:00,0,28175869,195684
OK,44,51,945,44,2014-10-01T21:35:00,0,28176318,195684
OK,44,51,945,44,2014-10-01T21:40:00,0,28176767,195684
OK,44,51,945,44,2014-10-01T21:45:00,0,28177123,195684
OK,44,51,945,44,2014-10-01T21:50:00,0,28177563,195684
OK,44,51,945,44,2014-10-01T21:55:00,0,28178009,195684
OK,44,51,945,44,2014-10-01T22:00:00,0,28178458,195684
OK,44,51,945,44,2014-10-01T22:05:00,0,28178905,195684
OK,44,51,945,44,2014-10-01T22:10:00,0,28179339,195684
OK,44,51,945,44,2014-10-01T22:15:00,0,28179782,195684
OK,44,51,945,44,2014-10-01T22:20:00,0,28180229,195684
OK,44,51,945,44,2014-10-01T22:25:00,0,28180627,195684
OK,44,51,945,44,2014-10-01T22:30:00,0,28181076,195684
OK,44,51,945,44,2014-10-01T22:35:00,0,28181500,195684
OK,44,51,945,44,2014-10-01T22:40:00,0,28181948,195684
OK,44,51,945,44,2014-10-01T22:45:00,0,28182395,195684
OK,44,51,945,44,2014-10-01T22:50:00,0,28182844,195684
OK,44,51,945,44,2014-10-01T22:55:00,0,28183261,195684
OK,39,57,945,39,2014-10-01T23:00:00,1,28183694,195684
OK,39,57,945,39,2014-10-01T23:05:00,1,28184139,195684
OK,39,57,945,39,2014-10-01T23:10:00,0,28184588,195684
OK,39,57,945,39,2014-10-01T23:15:00,0,28185023,195684
OK,39,57,945,39,2014-10-01T23:20:00,0,28185471,195684
OK,39,57,945,39,2014-10-01T23:25:00,0,28185902,195684
OK,39,57,945,39,2014-10-01T23:30:00,0,28186294,195684
OK,39,57,945,39,2014-10-01T23:40:00,0,28187141,195684
OK,39,57,945,39,2014-10-01T23:55:00,0,28188473,195684
OK,39,57,945,39,2014-10-02T00:05:00,0,28189358,195684
OK,39,57,945,39,2014-10-02T00:10:00,0,28189780,195684
OK,39,57,945,39,2014-10-02T00:15:00,0,28190229,195684
OK,39,57,945,39,2014-10-02T00:20:00,0,28190582,195684
OK,39,57,945,39,2014-10-02T00:30:00,0,28191480,195684
OK,39,57,945,39,2014-10-02T00:35:00,0,28191786,195684
OK,39,57,945,39,2014-10-02T00:40:00,0,28192235,195684
OK,39,57,945,39,2014-10-02T00:45:00,0,28192668,195684
OK,39,57,945,39,2014-10-02T00:50:00,0,28193112,195684
OK,39,57,945,39,2014-10-02T00:55:00,0,28193479,195684
OK,39,57,945,39,2014-10-02T01:05:00,0,28194377,195684
OK,39,57,945,39,2014-10-02T01:10:00,0,28194826,195684
OK,39,57,945,39,2014-10-02T01:15:00,0,28195063,195684
OK,39,57,945,39,2014-10-02T01:25:00,0,28195960,195684
OK,39,57,945,39,2014-10-02T01:30:00,0,28196248,195684
OK,39,57,945,39,2014-10-02T01:35:00,0,28196693,195684
OK,39,57,945,39,2014-10-02T01:40:00,0,28197116,195684
OK,39,57,945,39,2014-10-02T01:45:00,0,28197565,195684
OK,39,57,945,39,2014-10-02T01:50:00,0,28198013,195684
OK,39,57,945,39,2014-10-02T01:55:00,0,28198461,195684
OK,39,57,945,39,2014-10-02T02:00:00,0,28198910,195684
OK,39,57,945,39,2014-10-02T02:05:00,0,28199282,195684
OK,39,57,945,39,2014-10-02T02:10:00,0,28199724,195684
OK,39,57,945,39,2014-10-02T02:15:00,0,28200166,195684
OK,39,57,945,39,2014-10-02T02:20:00,0,28200609,195684
OK,39,57,945,39,2014-10-02T02:25:00,0,28201058,195684
OK,39,57,945,39,2014-10-02T02:30:00,0,28201489,195684
OK,39,57,945,39,2014-10-02T02:45:00,0,28202387,195684
OK,50,45,945,50,2014-10-02T02:50:00,1,28202829,195684
OK,50,45,945,50,2014-10-02T02:55:00,0,28203277,195684
OK,41,55,945,41,2014-10-02T03:00:00,2,28203712,195684
OK,35,64,945,35,2014-10-02T03:10:00,1,28204161,195684
OK,38,59,945,38,2014-10-02T03:25:00,0,28204610,195684
OK,38,59,945,38,2014-10-02T03:30:00,0,28205059,195684
OK,47,48,945,47,2014-10-02T03:35:00,1,28205487,195684
OK,47,48,945,47,2014-10-02T03:40:00,0,28205934,195684
OK,64,35,945,64,2014-10-02T03:45:00,1,28206317,195684
OK,64,35,945,64,2014-10-02T03:55:00,0,28207215,195684
OK,53,42,945,53,2014-10-02T04:00:00,3,28207635,195684
OK,24,94,945,24,2014-10-02T04:05:00,0,28208083,195684
OK,24,94,945,24,2014-10-02T04:10:00,0,28208510,195684
OK,24,94,945,24,2014-10-02T04:15:00,0,28208959,195684
OK,45,50,945,45,2014-10-02T04:20:00,2,28209397,195684
OK,48,47,945,48,2014-10-02T04:25:00,0,28209846,195684
OK,40,56,945,40,2014-10-02T04:30:00,2,28210269,195684
OK,53,42,945,53,2014-10-02T04:35:00,1,28210718,195684
OK,39,57,945,39,2014-10-02T04:40:00,3,28211143,195684
OK,39,57,945,39,2014-10-02T04:45:00,1,28211587,195684
OK,39,57,945,39,2014-10-02T04:50:00,0,28211965,195684
OK,48,47,945,48,2014-10-02T04:55:00,5,28212414,195684
OK,62,36,945,62,2014-10-02T05:00:00,1,28212843,195684
OK,52,43,945,52,2014-10-02T05:05:00,8,28213292,195684
OK,43,52,945,43,2014-10-02T05:10:00,1,28213730,195684
OK,65,34,945,65,2014-10-02T05:15:00,4,28214179,195684
OK,55,41,945,55,2014-10-02T05:20:00,1,28214592,195684
OK,64,35,945,64,2014-10-02T05:25:00,7,28215041,195684
OK,65,34,945,65,2014-10-02T05:30:00,0,28215457,195684
OK,65,34,945,65,2014-10-02T05:35:00,0,28215906,195684
OK,49,46,945,49,2014-10-02T05:40:00,8,28216246,195684
OK,48,47,945,48,2014-10-02T05:45:00,4,28216685,195684
OK,53,42,945,53,2014-10-02T05:50:00,0,28217132,195684
OK,93,24,945,93,2014-10-02T05:55:00,9,28217581,195684
OK,82,27,945,82,2014-10-02T06:00:00,6,28218020,195684
OK,77,29,945,77,2014-10-02T06:05:00,8,28218469,195684
OK,77,29,945,77,2014-10-02T06:10:00,4,28218889,195684
OK,97,23,945,97,2014-10-02T06:15:00,7,28219338,195684
OK,85,26,945,85,2014-10-02T06:20:00,10,28219711,195684
OK,51,44,945,51,2014-10-02T06:25:00,7,28220160,195684
OK,54,41,945,54,2014-10-02T06:30:00,7,28220594,195684
OK,65,34,945,65,2014-10-02T06:35:00,7,28221043,195684
OK,65,34,945,65,2014-10-02T06:40:00,7,28221424,195684
OK,60,37,945,60,2014-10-02T06:45:00,3,28221710,195684
OK,33,68,945,33,2014-10-02T07:00:00,2,28222304,195684
OK,42,53,945,42,2014-10-02T07:05:00,5,28222753,195684
OK,49,46,945,49,2014-10-02T07:10:00,6,28223184,195684
OK,51,44,945,51,2014-10-02T07:15:00,2,28223619,195684
OK,54,41,945,54,2014-10-02T07:20:00,0,28224067,195684
OK,42,53,945,42,2014-10-02T07:25:00,3,28224422,195684
OK,43,52,945,43,2014-10-02T07:30:00,2,28224871,195684
OK,62,36,945,62,2014-10-02T07:35:00,12,28225320,195684
OK,55,41,945,55,2014-10-02T07:40:00,4,28225642,195684
OK,46,49,945,46,2014-10-02T07:50:00,8,28226532,195684
OK,48,47,945,48,2014-10-02T07:55:00,10,28226981,195684
OK,60,37,945,60,2014-10-02T08:00:00,2,28227396,195684
OK,51,44,945,51,2014-10-02T08:05:00,4,28227845,195684
OK,24,94,945,24,2014-10-02T08:10:00,0,28228204,195684
OK,45,50,945,45,2014-10-02T08:15:00,7,28228653,195684
OK,82,27,945,82,2014-10-02T08:20:00,1,28229063,195684
OK,30,75,945,30,2014-10-02T08:25:00,3,28229512,195684
OK,24,94,945,24,2014-10-02T08:30:00,1,28229862,195684
OK,46,49,945,46,2014-10-02T08:35:00,4,28230311,195684
OK,55,41,945,55,2014-10-02T08:40:00,2,28230677,195684
OK,55,41,945,55,2014-10-02T08:45:00,0,28231126,195684
OK,61,37,945,61,2014-10-02T08:50:00,2,28231549,195684
OK,64,35,945,64,2014-10-02T08:55:00,0,28231998,195684
OK,43,52,945,43,2014-10-02T09:00:00,13,28232340,195684
OK,56,40,945,56,2014-10-02T09:10:00,0,28232789,195684
OK,41,55,945,41,2014-10-02T09:15:00,1,28233238,195684
OK,41,55,945,41,2014-10-02T09:20:00,0,28233662,195684
OK,40,56,945,40,2014-10-02T09:25:00,9,28234111,195684
OK,42,53,945,42,2014-10-02T09:30:00,0,28234444,195684
OK,37,61,945,37,2014-10-02T09:40:00,2,28235320,195684
OK,50,45,945,50,2014-10-02T09:45:00,3,28235769,195684
OK,52,43,945,52,2014-10-02T09:50:00,1,28236212,195684
OK,61,37,945,61,2014-10-02T09:55:00,2,28236659,195684
OK,39,57,945,39,2014-10-02T10:00:00,1,28237062,195684
OK,38,59,945,38,2014-10-02T10:05:00,0,28237510,195684
OK,55,41,945,55,2014-10-02T10:10:00,8,28237958,195684
OK,65,34,945,65,2014-10-02T10:15:00,8,28238405,195684
OK,57,39,945,57,2014-10-02T10:20:00,8,28238846,195684
OK,48,47,945,48,2014-10-02T10:25:00,4,28239295,195684
OK,50,45,945,50,2014-10-02T10:30:00,1,28239725,195684
OK,59,38,945,59,2014-10-02T10:35:00,8,28240174,195684
OK,74,30,945,74,2014-10-02T10:40:00,2,28240618,195684
OK,41,55,945,41,2014-10-02T10:45:00,2,28241067,195684
OK,41,55,945,41,2014-10-02T10:50:00,2,28241499,195684
OK,67,33,945,67,2014-10-02T10:55:00,9,28241947,195684
OK,52,43,945,52,2014-10-02T11:00:00,1,28242343,195684
OK,52,43,945,52,2014-10-02T11:05:00,0,28242792,195684
OK,52,43,945,52,2014-10-02T11:10:00,7,28243241,195684
OK,50,45,945,50,2014-10-02T11:15:00,7,28243570,195684
OK,41,55,945,41,2014-10-02T11:20:00,10,28244004,195684
OK,38,59,945,38,2014-10-02T11:25:00,3,28244433,195684
OK,37,61,945,37,2014-10-02T11:30:00,0,28244882,195684
OK,43,52,945,43,2014-10-02T11:35:00,10,28245331,195684
OK,30,75,945,30,2014-10-02T11:40:00,2,28245737,195684
OK,18,125,945,18,2014-10-02T11:45:00,0,28246186,195684
OK,53,42,945,53,2014-10-02T11:50:00,10,28246623,195684
OK,86,26,945,86,2014-10-02T11:55:00,5,28247072,195684
OK,79,28,945,79,2014-10-02T12:00:00,4,28247518,195684
OK,73,30,945,73,2014-10-02T12:05:00,1,28247948,195684
OK,73,30,945,73,2014-10-02T12:10:00,0,28248397,195684
OK,69,32,945,69,2014-10-02T12:15:00,3,28248844,195684
OK,103,21,945,103,2014-10-02T12:20:00,1,28249272,195684
OK,48,47,945,48,2014-10-02T12:25:00,4,28249716,195684
OK,60,37,945,60,2014-10-02T12:30:00,2,28250135,195684
OK,58,38,945,58,2014-10-02T12:35:00,5,28250533,195684
OK,54,41,945,54,2014-10-02T13:20:00,5,28251858,195684
OK,65,34,945,65,2014-10-02T13:30:00,7,28252442,195684
OK,76,29,945,76,2014-10-02T13:35:00,1,28252884,195684
OK,76,29,945,76,2014-10-02T13:40:00,0,28253301,195684
OK,46,49,945,46,2014-10-02T13:45:00,5,28253750,195684
OK,46,49,945,46,2014-10-02T13:50:00,3,28254155,195684
OK,70,32,945,70,2014-10-02T13:55:00,5,28254476,195684
OK,46,49,945,46,2014-10-02T14:10:00,4,28255053,195684
OK,56,40,945,56,2014-10-02T14:15:00,6,28255502,195684
OK,61,37,945,61,2014-10-02T14:20:00,2,28255930,195684
OK,87,25,945,87,2014-10-02T14:25:00,0,28256379,195684
OK,121,18,945,121,2014-10-02T14:30:00,7,28256807,195684
OK,101,22,945,101,2014-10-02T14:35:00,9,28257256,195684
OK,76,29,945,76,2014-10-02T14:40:00,5,28257697,195684
OK,80,28,945,80,2014-10-02T14:45:00,5,28258145,195684
OK,89,25,945,89,2014-10-02T14:50:00,4,28258578,195684
OK,98,23,945,98,2014-10-02T14:55:00,2,28259024,195684
OK,45,50,945,45,2014-10-02T15:00:00,2,28259473,195684
OK,67,33,945,67,2014-10-02T15:05:00,2,28259920,195684
OK,48,47,945,48,2014-10-02T15:10:00,4,28260353,195684
OK,54,41,945,54,2014-10-02T15:15:00,3,28260802,195684
OK,70,32,945,70,2014-10-02T15:20:00,2,28261242,195684
OK,47,48,945,47,2014-10-02T15:25:00,8,28261624,195684
OK,41,55,945,41,2014-10-02T15:30:00,5,28262054,195684
OK,49,46,945,49,2014-10-02T15:40:00,0,28262947,195684
OK,44,51,945,44,2014-10-02T15:45:00,8,28263385,195684
OK,101,22,945,101,2014-10-02T15:50:00,0,28263826,195684
OK,101,22,945,101,2014-10-02T15:55:00,0,28264228,195684
OK,62,36,945,62,2014-10-02T16:00:00,4,28264677,195684
OK,78,28,945,78,2014-10-02T16:05:00,2,28265115,195684
OK,85,26,945,85,2014-10-02T16:10:00,0,28265555,195684
OK,85,26,945,85,2014-10-02T16:15:00,0,28265951,195684
OK,60,37,945,60,2014-10-02T16:20:00,9,28266400,195684
OK,55,41,945,55,2014-10-02T16:25:00,8,28266849,195684